Location: Dunedin
(45.8670°S, 170.5000°E)
Time: 02:56:51
(UTC+13:00)

ADEOS Rocket - Pass Details

Date: 24 January 2019
Orbit: 859 x 1307 km, 98.7° (Epoch: 17 February)

Event Time Altitude Azimuth Distance (km) Brightness Sun altitude
Exits shadow 23:05:50 - 352° (N) 2,677 4.9 -15.0°
Reaches altitude 10° 23:06:10 10° 351° (N) 2,553 4.8 -15.1°
Maximum altitude 23:11:30 45° 279° (W) 1,177 3.7 -15.7°
Drops below altitude 10° 23:16:50 10° 206° (SSW) 2,537 6.5 -16.2°
Sets 23:19:21 0° 199° (SSW) 3,498 7.3 -16.5°
